EW4536 Weather Reports


Display with metric or nautical units.
time (UTC)temp
F
wind
direction
speed
MPH
gust
MPH
rain 1hr
in
rain 24hr
in
rain mn
in
humidity
%
barometer
mb
20260505221534 82 132 8.0 14.0 0.00 0.00 0.00 46 1013.5
20260505220113 83 119 5.0 13.0 0.00 0.00 0.00 45 1013.5
20260505214544 86 174 2.0 7.0 0.00 0.00 0.00 38 1013.4
20260505213109 86 244 3.0 8.0 0.00 0.00 0.00 37 1013.5
20260505211539 86 147 3.0 10.0 0.00 0.00 0.00 39 1013.5
20260505210103 85 137 5.0 10.0 0.00 0.00 0.00 37 1013.6
20260505204518 86 251 1.0 5.0 0.00 0.00 0.00 37 1013.8
20260505203121 85 134 1.0 8.0 0.00 0.00 0.00 39 1014.0
20260505201508 84 149 1.0 7.0 0.00 0.00 0.00 39 1014.1
20260505200046 84 157 2.0 7.0 0.00 0.00 0.00 40 1014.4
20260505194509 85 155 2.0 8.0 0.00 0.00 0.00 39 1014.3
20260505193045 85 86 1.0 5.0 0.00 0.00 0.00 38 1014.5
20260505191508 83 179 0.0 10.0 0.00 0.00 0.00 40 1014.7
20260505190042 84 151 1.0 8.0 0.00 0.00 0.00 39 1014.8
20260505184508 83 82 2.0 7.0 0.00 0.00 0.00 41 1015.0
20260505183041 83 121 1.0 6.0 0.00 0.00 0.00 41 1015.3
20260505181608 84 121 3.0 9.0 0.00 0.00 0.00 41 1015.4
20260505180029 82 241 1.0 11.0 0.00 0.00 0.00 42 1015.5
20260505174604 83 266 1.0 10.0 0.00 0.00 0.00 42 1015.7
20260505173024 81 73 1.0 4.0 0.00 0.00 0.00 44 1015.8
20260505171605 80 134 2.0 6.0 0.00 0.00 0.00 45 1016.1
20260505170034 83 123 3.0 10.0 0.00 0.00 0.00 43 1016.1
20260505164554 80 136 1.0 6.0 0.00 0.00 0.00 45 1016.4
20260505163027 82 123 4.0 10.0 0.00 0.00 0.00 43 1016.4
20260505161605 81 114 2.0 7.0 0.00 0.00 0.00 46 1016.6
20260505153048 78 296 0.0 7.0 0.00 0.00 0.00 52 1016.8
20260505151611 79 146 2.0 9.0 0.00 0.00 0.00 53 1016.9
20260505124601 65 134 0.0 5.0 0.00 0.00 0.00 80 1016.4
20260505123026 63 154 1.0 4.0 0.00 0.00 0.00 85 1016.3
20260505121602 59 151 0.0 0.0 0.00 0.00 0.00 92 1016.3
20260505120028 56 151 0.0 0.0 0.00 0.00 0.00 94 1016.5
20260505114558 54 151 0.0 0.0 0.00 0.00 0.00 94 1016.1
20260505113036 52 151 0.0 0.0 0.00 0.00 0.00 94 1015.9
20260505111608 51 151 0.0 0.0 0.00 0.00 0.00 94 1016.1
20260505101605 51 151 0.0 0.0 0.00 0.00 0.00 93 1015.6
20260505100020 51 151 0.0 0.0 0.00 0.00 0.00 93 1015.6
20260505094601 50 151 0.0 2.0 0.00 0.00 0.00 92 1015.4
20260505093008 51 151 0.0 0.0 0.00 0.00 0.00 93 1015.3
20260505091549 51 151 0.0 1.0 0.00 0.00 0.00 92 1015.2
20260505090021 52 151 0.0 2.0 0.00 0.00 0.00 92 1015.0
20260505084548 52 151 0.0 0.0 0.00 0.00 0.00 92 1014.8
20260505083012 52 151 0.0 0.0 0.00 0.00 0.00 92 1014.8
20260505081549 52 151 0.0 0.0 0.00 0.00 0.00 92 1014.8
20260505080024 53 151 0.0 0.0 0.00 0.00 0.00 92 1014.8
20260505074546 53 151 0.0 2.0 0.00 0.00 0.00 92 1014.8
20260505073015 53 151 0.0 0.0 0.00 0.00 0.00 92 1014.9
20260505071548 54 151 0.0 2.0 0.00 0.00 0.00 91 1015.0
20260505070025 55 151 0.0 0.0 0.00 0.00 0.00 91 1015.1
20260505064558 55 151 0.0 0.0 0.00 0.00 0.00 91 1015.4
20260505063026 55 151 0.0 0.0 0.00 0.00 0.00 91 1015.5
20260505061630 55 151 0.0 0.0 0.00 0.00 0.00 91 1015.6
20260505060031 55 151 0.0 1.0 0.00 0.00 0.00 90 1015.9
20260505054606 57 151 0.0 0.0 0.00 0.00 0.00 90 1016.0
20260505053026 57 151 0.0 0.0 0.00 0.00 0.00 90 1016.0
20260505051600 57 151 0.0 0.0 0.00 0.00 0.00 89 1016.3
20260505041601 60 151 0.0 0.0 0.00 0.00 0.00 84 1016.6
20260505040030 60 151 0.0 0.0 0.00 0.00 0.00 82 1016.7
20260505034546 61 151 0.0 0.0 0.00 0.00 0.00 81 1016.7
20260505033017 62 151 0.0 2.0 0.00 0.00 0.00 78 1016.8
20260505031558 64 151 0.0 2.0 0.00 0.00 0.00 75 1016.7
20260505030025 65 153 0.0 2.0 0.00 0.00 0.00 73 1016.6
20260505024601 66 152 0.0 2.0 0.00 0.00 0.00 72 1016.5
20260505023018 67 142 1.0 7.0 0.00 0.00 0.00 70 1016.4
20260505021553 67 128 3.0 9.0 0.00 0.00 0.00 69 1016.1
20260505020025 68 134 3.0 7.0 0.00 0.00 0.00 69 1015.9
20260505014555 68 137 3.0 7.0 0.00 0.00 0.00 68 1015.8
20260505013017 69 136 3.0 6.0 0.00 0.00 0.00 66 1015.8
20260505011619 69 137 3.0 8.0 0.00 0.00 0.00 65 1015.6
20260505010033 70 127 2.0 6.0 0.00 0.00 0.00 64 1015.6
20260505004507 71 113 1.0 4.0 0.00 0.00 0.00 61 1015.3
20260505003043 71 123 3.0 8.0 0.00 0.00 0.00 59 1015.2
20260505001522 72 135 3.0 9.0 0.00 0.00 0.00 57 1015.1
20260504234527 74 128 1.0 7.0 0.00 0.00 0.00 54 1014.8
20260504233058 75 124 6.0 11.0 0.00 0.00 0.00 51 1014.6
20260504231521 76 59 3.0 11.0 0.00 0.00 0.00 49 1014.5
20260504230104 77 134 6.0 14.0 0.00 0.00 0.00 47 1014.3
20260504224525 77 90 6.0 16.0 0.00 0.00 0.00 46 1014.4
20260504223103 78 82 4.0 9.0 0.00 0.00 0.00 44 1014.3